Hourly Data Report for August 01, 2021

TORONTO CITY
ONTARIO
Current Station Operator: ECCC - MSC

43°40'00.000" N
79°24'00.000" W
112.50 m
6158355
71508
XTO

Download Data

Hourly Data (August 2021)
Hourly Data Report for August 1, 2021
TIME
LST
Temp Definition
°C
Dew Point Definition
°C
Rel Hum Definition
%
Precip. Amount Definition
mm

Wind Dir Definition
10's deg

Wind Spd Definition
km/h
Visibility Definition
km
Stn Press Definition
kPa
Hmdx Definition


Wind Chill Definition


Weather Definition


00:00 20.2 16.0 77 0.0       99.68 25   LegendNANA
01:00 19.8 15.6 77 0.0       99.61     LegendNANA
02:00 18.8 15.5 81 0.0       99.55     LegendNANA
03:00 17.9 15.3 85 0.0       99.57     LegendNANA
04:00 17.6 15.3 86 0.0       99.59     LegendNANA
05:00 16.9 13.6 81 0.0       99.57     LegendNANA
06:00 16.7 13.7 83 0.0       99.62     LegendNANA
07:00 17.6 13.9 79 0.0       99.65     LegendNANA
08:00 17.8 14.1 79 0.0       99.63     LegendNANA
09:00 18.5 13.8 74 0.0       99.64     LegendNANA
10:00 18.6 13.9 74 0.0       99.73     LegendNANA
11:00 18.6 14.6 78 0.3       99.68     LegendNANA
12:00 19.5 13.8 70 0.0       99.71     LegendNANA
13:00 20.6 13.6 64 0.0       99.71     LegendNANA
14:00 21.1 13.6 62 0.0       99.70     LegendNANA
15:00 20.5 12.8 61 0.0       99.74     LegendNANA
16:00 20.4 13.1 63 0.0       99.75     LegendNANA
17:00 20.4 13.5 65 0.0       99.80     LegendNANA
18:00 19.8 13.6 68 0.0       99.85     LegendNANA
19:00 18.2 13.0 72 0.0       99.94     LegendNANA
20:00 18.0 13.6 75 0.0       100.01     LegendNANA
21:00 17.3 13.8 80 0.0       100.10     LegendNANA
22:00 17.1 13.9 82 0.0       100.10     LegendNANA
23:00 17.1 13.5 79 0.0       100.14     LegendNANA

Notes on Data Quality.

Legend

  • E = Estimated
  • M = Missing
  • NA = Not Available*
  • [empty] = Indicates an unobserved value
Date modified: